Skip Page Navigation
NASA JPL Caltech
NASA Logo - Jet Propulsion Laboratory + View the NASA Portal
+ Center for Near-Earth Object Studies
JPL Home Earth Solar System Stars & Galaxies Technology
JPL Solar System Dynamics
BODIES ORBITS EPHEMERIDES TOOLS PHYSICAL DATA DISCOVERY FAQ SITE MAP
IMPORTANT: The SSD Announcement email list is now available. Major changes are coming in the near future, including possible hostname and/or URL changes. To be notified of such changes, subscribe to this email list.

Please visit this page for more details.


JPL Small-Body Database Browser
Search: [ help ]  
46355 (2001 TQ65)
Classification: Outer Main-belt Asteroid          SPK-ID: 2046355
Ephemeris | Orbit Diagram | Orbital Elements | Mission Design | Physical Parameters | Discovery Circumstances | Close-Approach Data ]

[ show orbit diagram ]
Orbital Elements at Epoch 2458600.5 (2019-Apr-27.0) TDB
Reference: JPL 22 (heliocentric ecliptic J2000)
 Element Value Uncertainty (1-sigma)   Units 
e .09792209210461723 4.0169e-08  
a 3.249953290046071 2.3844e-08 au
q 2.931711064642476 1.2626e-07 au
i 7.708127373120687 5.8341e-06 deg
node 37.17785372200827 3.5409e-05 deg
peri 255.7291845073111 4.735e-05 deg
M 88.90407301430062 3.1646e-05 deg
tp 2458072.014272820883
(2017-Nov-14.51427282)
0.00018774 TDB
period 2140.001636976507
5.86
2.3551e-05
6.448e-08
d
yr
n .1682241703836379 1.8513e-09 deg/d
Q 3.568195515449667 2.6179e-08 au
  Orbit Determination Parameters
   # obs. used (total)      1114  
   data-arc span      10136 days (27.75 yr)  
   first obs. used      1992-01-29  
   last obs. used      2019-10-30  
   planetary ephem.      DE431  
   SB-pert. ephem.      SB431-N16  
   condition code      0  
   norm. resid. RMS      .55725  
   source      ORB  
   producer      Otto Matic  
   solution date      2019-Nov-07 06:26:49  

Additional Information
 Earth MOID = 1.92788 au 
 Jupiter MOID = 1.62916 au 
 T_jup = 3.160 
[ show covariance matrix ]

Ephemeris | Orbit Diagram | Orbital Elements | Mission Design | Physical Parameters | Discovery Circumstances | Close-Approach Data ]

Physical Parameter Table
Parameter Symbol Value Units Sigma Reference Notes
absolute magnitude H 13.7   n/a MPO337629  
diameter diameter 9.684 km 0.163 urn:nasa:pds:neowise_diameters_albedos::2.0[mainbelt] (http://adsabs.harvard.edu/abs/2011ApJ...741...68M)  
geometric albedo albedo 0.062   0.003 urn:nasa:pds:neowise_diameters_albedos::2.0[mainbelt] (http://adsabs.harvard.edu/abs/2011ApJ...741...68M)  

46355 (2001 TQ65)          Discovered 2001-Oct-13 by LINEAR at Socorro
Reference: 20020822/Numbers.arcLast Updated: 2004-04-19

[ show close-approach data ]
Alternate Designations
 2001 TQ65 = 1999 JS25 
Ephemeris | Orbit Diagram | Orbital Elements | Mission Design | Physical Parameters | Discovery Circumstances | Close-Approach Data ]
ABOUT SSD CREDITS/AWARDS PRIVACY/COPYRIGHT GLOSSARY LINKS
FirstGov
(server date/time)  
NASA Home Page
Site Manager:   Ryan S. Park
Webmaster  Alan B. Chamberlin